Flag for Germany Weather past 2 weeks in Regensburg, Bavaria, Germany

Now
36 °F

Passing clouds.


Feels Like: 36 °F
Forecast: 29 / 41 °F
Wind: 1 mph from Southwest

Location: Regensburg

Current Time: Feb 27, 2015 at 10:33:04 PM

Latest Report: Feb 27, 2015 at 10:00 PM


Visibility: 12 mi

Pressure: 30.06 "Hg

Humidity: 88%

Dew point: 32 °F

Location of RegensburgLocation

Historic Weather in Regensburg — Graph

°F

Regensburg temperature yesterday

Maximum temperature yesterday: 44 °F (at 4:00 PM)
Minimum temperature yesterday: 26 °F (at 9:00 AM)
Average temperature yesterday: 35 °F

Past Weeks' High & Low Weather Summary

 TemperatureHumidityPressure
High49 °F (Feb 27, 4:00 PM)100% (Feb 23, 5:00 AM)30.80 "Hg (Feb 23, 5:00 AM)
Low22 °F (Feb 15, 4:00 AM)42% (Feb 27, 5:00 PM)29.54 "Hg (Feb 21, 4:00 PM)
Average32 °F87%30.10 "Hg
* Reported Feb 12 9:00 PM — Feb 27 9:00 PM, Regensburg, Weather by CustomWeather, © 2015

Note: Actual official high and low records may vary slightly from our data, if they occured in-between our weather recording intervals... More about our weather records

Advertising

Regensburg weather history for previous 24 hours

 ConditionsComfort  
Time TempWeatherWind HumidityBarometerVisibility
9:00 PM
Fri, Feb 27
35 °FPassing clouds.3 mph89%30.03 "Hg16 mi
8:00 PM37 °FOvercast.2 mph83%30.01 "Hg18 mi
7:00 PM38 °FClear.2 mph77%29.98 "Hg17 mi
6:00 PM41 °FPassing clouds.5 mph67%29.94 "Hg15 mi
5:00 PM48 °FSunny.3 mph42%29.89 "Hg19 mi
4:00 PM49 °FSunny.2 mph44%29.87 "Hg10 mi
3:00 PM48 °FPassing clouds.2 mph44%29.86 "Hg12 mi
2:00 PM47 °FSunny.1 mph48%29.87 "Hg9 mi
1:00 PM45 °FSunny.1 mph55%29.88 "Hg8 mi
12:00 PM41 °FSunny.2 mph65%29.90 "Hg6 mi
11:00 AM39 °FSunny.2 mph72%29.89 "Hg6 mi
10:00 AM35 °FSunny.2 mph77%29.90 "Hg5 mi
9:00 AM28 °FFog.1 mph85%29.93 "Hg4 mi
8:00 AM24 °FFog.1 mph94%29.93 "Hg4 mi
7:00 AM23 °FFog.1 mph95%29.94 "Hg3 mi
6:00 AM24 °FFog.1 mph96%29.95 "Hg3 mi
5:00 AM24 °FFog.1 mph95%29.96 "Hg3 mi
4:00 AM25 °FClear.1 mph96%29.96 "HgN/A
3:00 AM25 °FFog.2 mph96%29.98 "Hg3 mi
2:00 AM26 °FFog.2 mph95%30.01 "Hg4 mi
1:00 AM26 °FFog.2 mph94%30.03 "Hg4 mi
12:00 AM28 °FClear.1 mph92%30.04 "Hg6 mi
11:00 PM
Thu, Feb 26
28 °FClear.1 mph91%30.06 "Hg6 mi
10:00 PM29 °FClear.1 mph89%30.08 "Hg7 mi
Weather by CustomWeather, © 2015

See weather overviewHow to use our weather pages